Waarnemingen

Advertentie
Mijn weer
Koksijde, België (6400): temperatuur & dauwpunt: 03.12.2018 21:00:00 - 09.12.2018 21:00:00 (CET)Koksijde, België (6400): windsnelheid & windstoten: 03.12.2018 21:00:00 - 09.12.2018 21:00:00 (CET)Koksijde, België (6400): windrichting: 03.12.2018 21:00:00 - 09.12.2018 21:00:00 (CET)Koksijde, België (6400): luchtdruk: 03.12.2018 21:00:00 - 09.12.2018 21:00:00 (CET)Koksijde, België (6400): zicht: 03.12.2018 21:00:00 - 09.12.2018 21:00:00 (CET)
Datum & Tijd tt [°C] td [°C] ff [km/u] ff [kn] fx [km/u] fx [kn] dd ppp [hPa] vv [km]
09.12.2018 21:00:00 8,9 2,3 29 16 43 23 NW 1018,1 19
09.12.2018 20:00:00 9,0 2,0 25 14 47 25 NW 1016,7 20
09.12.2018 19:00:00 9,1 2,0 25 14 - - NW 1015,7 20
09.12.2018 18:00:00 8,9 1,3 36 19 50 27 NW 1014,5 20
09.12.2018 17:00:00 8,9 3,2 25 14 47 25 NW 1012,8 15
09.12.2018 16:00:00 9,3 3,9 29 16 - - NW 1011,2 18
09.12.2018 15:00:00 9,5 4,4 29 16 50 27 NW 1009,3 19
09.12.2018 14:00:00 9,6 5,2 29 16 54 29 NW 1007,5 16
09.12.2018 13:00:00 9,8 6,5 29 16 - - NW 1006,0 13
09.12.2018 12:00:00 10,3 6,4 36 19 58 31 WNW 1004,7 17
09.12.2018 11:00:00 10,3 6,2 40 21 50 27 WNW 1003,2 12
09.12.2018 10:00:00 9,1 6,4 37 20 - - WNW 1002,1 10
09.12.2018 09:00:00 10,1 5,6 39 21 61 33 W 1001,2 7
09.12.2018 08:00:00 10,1 5,1 40 21 61 33 W 1000,3 11
09.12.2018 07:00:00 10,0 4,9 47 25 - - W 1000,6 13
09.12.2018 06:00:00 9,8 4,5 43 23 65 35 W 1000,2 10
09.12.2018 05:00:00 9,8 4,6 43 23 65 35 W 1000,2 11
09.12.2018 04:00:00 9,8 4,6 47 25 - - W 999,9 11
09.12.2018 03:00:00 10,2 5,0 43 23 72 39 W 999,6 10
09.12.2018 02:00:00 10,2 5,2 43 23 65 35 W 999,1 9
09.12.2018 01:00:00 10,5 5,6 40 21 - - W 998,9 9
09.12.2018 00:00:00 10,3 5,4 36 19 65 35 W 999,1 9
08.12.2018 23:00:00 10,7 5,5 43 23 76 41 W 998,4 11
08.12.2018 22:00:00 11,3 6,0 44 24 - - W 997,8 10
08.12.2018 21:00:00 11,6 7,0 39 21 61 33 W 998,1 10
08.12.2018 20:00:00 12,0 8,2 40 21 61 33 WZW 998,1 12
08.12.2018 19:00:00 12,3 10,0 40 21 - - WZW 998,7 6
08.12.2018 18:00:00 10,1 9,2 32 18 47 25 ZW 1000,1 2,2
08.12.2018 17:00:00 10,8 9,7 34 18 54 29 WZW 1001,7 3,5
08.12.2018 16:00:00 11,6 8,4 36 19 - - WZW 1003,0 10
08.12.2018 15:00:00 12,0 6,7 36 19 68 37 WZW 1004,2 19
08.12.2018 14:00:00 11,8 5,2 43 23 65 35 W 1005,3 8
08.12.2018 13:00:00 11,3 4,2 40 21 - - W 1006,0 10
08.12.2018 12:00:00 11,3 4,7 54 29 76 41 W 1006,2 8
08.12.2018 11:00:00 10,8 4,4 50 27 72 39 W 1006,2 13
08.12.2018 10:00:00 10,5 4,1 47 25 - - W 1005,6 11
08.12.2018 09:00:00 10,2 3,7 47 25 65 35 W 1005,6 11
08.12.2018 08:00:00 10,3 4,1 43 23 68 37 W 1005,5 10
08.12.2018 07:00:00 9,9 3,9 36 19 - - W 1005,2 12
08.12.2018 06:00:00 10,1 3,9 40 21 65 35 WZW 1005,1 12
08.12.2018 05:00:00 10,0 3,6 36 19 65 35 WZW 1005,2 13
08.12.2018 04:00:00 10,1 3,9 29 16 - - WZW 1005,6 7
08.12.2018 03:00:00 9,9 3,6 36 19 50 27 WZW 1006,0 12
08.12.2018 02:00:00 9,6 3,3 32 18 50 27 WZW 1006,3 14
08.12.2018 01:00:00 8,3 3,2 29 16 - - WZW 1006,8 14
08.12.2018 00:00:00 8,1 2,6 25 14 54 29 WZW 1007,0 14
07.12.2018 23:00:00 8,7 2,7 43 23 61 33 W 1006,7 15
07.12.2018 22:00:00 8,3 2,3 32 18 - - W 1006,2 16
07.12.2018 21:00:00 8,7 2,5 36 19 61 33 W 1006,0 13
07.12.2018 20:00:00 8,9 2,9 40 21 58 31 W 1005,1 14
07.12.2018 19:00:00 9,4 2,9 36 19 - - W 1003,8 14
07.12.2018 18:00:00 9,4 3,6 29 16 54 29 W 1002,7 15
07.12.2018 17:00:00 9,3 4,9 32 18 54 29 W 1001,7 14
07.12.2018 16:00:00 8,3 6,4 31 17 - - WNW 1000,7 3,5
07.12.2018 15:00:00 10,5 7,6 36 19 61 33 W 999,5 9
07.12.2018 14:00:00 11,1 9,9 34 18 47 25 ZZW 999,1 3,3
07.12.2018 13:00:00 11,1 9,6 32 18 - - ZZW 1000,7 5
07.12.2018 12:00:00 12,0 9,9 29 16 47 25 ZZW 1002,2 15
07.12.2018 11:00:00 11,7 9,9 29 16 50 27 ZZW 1004,5 5
07.12.2018 10:00:00 12,5 9,6 36 19 - - ZZW 1005,7 20
07.12.2018 09:00:00 12,1 9,8 32 18 47 25 ZZW 1006,7 20
07.12.2018 08:00:00 12,1 10,2 32 18 50 27 ZW 1007,8 12
07.12.2018 07:00:00 11,8 10,5 29 16 - - ZW 1008,7 8
07.12.2018 06:00:00 11,7 10,5 32 18 43 23 ZW 1009,7 6
07.12.2018 05:00:00 12,1 10,4 25 14 36 19 ZW 1010,8 20
07.12.2018 04:00:00 11,8 10,3 22 12 - - ZW 1012,0 20
07.12.2018 03:00:00 11,6 10,3 22 12 32 18 ZW 1012,8 17
07.12.2018 02:00:00 11,1 10,2 22 12 32 18 ZW 1013,7 2,1
07.12.2018 01:00:00 11,5 10,2 25 14 - - ZW 1014,2 11
07.12.2018 00:00:00 11,8 10,2 25 14 40 21 ZW 1015,0 8
06.12.2018 23:00:00 12,1 10,5 25 14 40 21 ZW 1015,2 15
06.12.2018 22:00:00 11,8 10,4 29 16 - - ZW 1015,7 6
06.12.2018 21:00:00 12,3 10,1 29 16 43 23 ZW 1016,0 11
06.12.2018 20:00:00 12,1 10,1 29 16 40 21 ZW 1016,0 10
06.12.2018 19:00:00 12,3 9,7 25 14 - - ZW 1016,2 8
06.12.2018 18:00:00 12,5 10,2 25 14 40 21 WZW 1016,0 8
06.12.2018 17:00:00 12,4 10,8 29 16 40 21 WZW 1016,2 8
06.12.2018 16:00:00 12,2 11,0 25 14 - - ZW 1016,1 6
06.12.2018 15:00:00 12,2 11,0 21 11 36 19 ZW 1016,0 4,0
06.12.2018 14:00:00 12,5 11,0 22 12 32 18 WZW 1016,3 8
06.12.2018 13:00:00 12,6 10,7 25 14 - - WZW 1016,7 6
06.12.2018 12:00:00 12,1 10,8 11 6 18 10 ZW 1017,0 6
06.12.2018 11:00:00 11,3 10,2 11 6 18 10 ZW 1017,0 6
06.12.2018 10:00:00 10,5 9,5 7 4 - - ZW 1016,6 7
06.12.2018 09:00:00 10,1 9,3 11 6 18 10 ZW 1016,2 6
06.12.2018 08:00:00 9,7 8,9 11 6 18 10 ZZW 1015,2 5
06.12.2018 07:00:00 10,8 9,5 7 4 - - WZW 1014,8 8
06.12.2018 06:00:00 11,9 9,9 22 12 32 18 W 1014,7 12
06.12.2018 05:00:00 11,5 10,2 18 10 25 14 WZW 1014,2 9
06.12.2018 04:00:00 11,6 10,1 22 12 - - W 1013,1 7
06.12.2018 03:00:00 12,5 11,1 25 14 36 19 W 1012,6 10
06.12.2018 02:00:00 11,3 10,5 11 6 18 10 ZW 1011,7 4,2
06.12.2018 01:00:00 11,0 10,2 11 6 - - ZZW 1011,7 5
06.12.2018 00:00:00 10,6 9,9 14 8 18 10 Z 1012,0 4,6
05.12.2018 23:00:00 10,3 9,5 15 8 18 10 ZZW 1012,2 1,3
05.12.2018 22:00:00 10,1 9,2 14 8 - - Z 1012,2 4,5
05.12.2018 21:00:00 10,1 8,7 18 10 29 16 Z 1012,2 5
05.12.2018 20:00:00 10,1 8,4 18 10 29 16 Z 1012,6 10
05.12.2018 19:00:00 10,1 8,8 18 10 - - Z 1013,0 8
05.12.2018 18:00:00 10,1 8,6 22 12 29 16 Z 1013,6 7
05.12.2018 17:00:00 10,0 8,8 22 12 32 18 ZZO 1013,8 8
05.12.2018 16:00:00 10,2 8,6 22 12 - - Z 1014,8 9
05.12.2018 15:00:00 9,8 8,5 22 12 29 16 Z 1015,7 7
05.12.2018 14:00:00 9,3 8,1 18 10 29 16 Z 1016,7 6
05.12.2018 13:00:00 8,8 7,8 22 12 - - Z 1018,0 6
05.12.2018 12:00:00 8,2 7,4 22 12 29 16 Z 1019,1 1,7
05.12.2018 11:00:00 7,7 6,5 25 14 32 18 ZZO 1019,7 5
05.12.2018 10:00:00 6,9 5,8 22 12 - - ZZO 1020,3 3,5
05.12.2018 09:00:00 6,5 5,3 18 10 29 16 ZZO 1020,8 4,0
05.12.2018 08:00:00 6,0 4,9 18 10 25 14 ZO 1021,2 5
05.12.2018 07:00:00 5,8 4,8 14 8 - - OZO 1021,8 8
05.12.2018 06:00:00 5,8 4,2 11 6 14 8 ZO 1023,1 6
05.12.2018 05:00:00 6,1 3,5 11 6 14 8 ZO 1023,2 7
05.12.2018 04:00:00 6,1 3,3 7 4 - - ZO 1023,6 11
05.12.2018 03:00:00 6,0 3,2 11 6 14 8 OZO 1023,7 10
05.12.2018 02:00:00 6,0 3,2 7 4 11 6 OZO 1024,4 10
05.12.2018 01:00:00 6,0 3,0 7 4 - - ZO 1024,5 12
05.12.2018 00:00:00 6,2 3,0 7 4 11 6 ZZO 1025,0 10
04.12.2018 23:00:00 6,5 3,1 11 6 11 6 ZZO 1025,0 11
04.12.2018 22:00:00 7,0 3,1 7 4 - - ZZO 1025,2 11
04.12.2018 21:00:00 7,4 3,3 7 4 11 6 Z 1025,2 12
04.12.2018 20:00:00 7,2 3,8 7 4 7 4 N 1025,5 12
04.12.2018 19:00:00 7,4 4,1 4 2 - - N 1025,0 15
04.12.2018 18:00:00 7,5 4,1 4 2 7 4 N 1024,5 15
04.12.2018 17:00:00 7,9 4,5 4 2 7 4 N 1024,2 20
04.12.2018 16:00:00 9,1 3,4 4 2 - - N 1024,0 20
04.12.2018 15:00:00 9,1 2,5 4 2 11 6 N 1023,3 20
04.12.2018 14:00:00 9,5 3,7 8 4 14 8 NW 1023,5 10
04.12.2018 13:00:00 10,1 3,2 7 4 - - NW 1023,0 20
04.12.2018 12:00:00 8,9 3,4 11 6 18 10 WNW 1022,7 20
04.12.2018 11:00:00 8,2 2,7 11 6 18 10 NW 1022,3 10
04.12.2018 10:00:00 7,9 3,0 7 4 - - NNW 1021,2 20
04.12.2018 09:00:00 7,4 1,8 7 4 14 8 NNW 1019,8 20
04.12.2018 08:00:00 6,7 1,7 9 5 22 12 NNW 1018,6 10
04.12.2018 07:00:00 8,2 2,0 14 8 - - NNW 1017,3 20
04.12.2018 06:00:00 7,9 3,5 11 6 25 14 NW 1016,5 20
04.12.2018 05:00:00 7,9 3,5 11 6 25 14 NW 1015,2 20
04.12.2018 04:00:00 8,0 4,2 14 8 - - NW 1014,3 19
04.12.2018 03:00:00 8,8 4,1 14 8 25 14 NW 1013,6 20
04.12.2018 02:00:00 9,1 4,3 14 8 29 16 NW 1012,6 20
04.12.2018 01:00:00 8,4 4,1 18 10 - - NW 1011,7 20
04.12.2018 00:00:00 9,1 4,6 16 9 29 16 WNW 1010,5 10
03.12.2018 23:00:00 9,1 5,0 21 11 32 18 NW 1009,2 10
03.12.2018 22:00:00 9,8 5,9 22 12 - - NW 1007,8 20
03.12.2018 21:00:00 10,0 5,7 32 18 50 27 NW 1006,3 19

tt = temperatuur
td = dauwpunt
ff = windsnelheid
fx = windstoten
dd = windrichting
ppp = luchtdruk
vv = zicht

Weerstations in de omgeving